LX1DH-13 Weather Reports


Display with metric or nautical units.
time (UTC)temp
F
wind
direction
speed
MPH
gust
MPH
rain 1hr
in
rain 24hr
in
rain mn
in
humidity
%
barometer
mb
20260507172011 55 0 0.0 1.0 0.00 0.00 0.00 70 1016.5
20260507171536 55 0 0.0 1.0 0.00 0.00 0.00 70 1016.4
20260507171012 55 0 0.0 3.0 0.00 0.00 0.00 70 1016.5
20260507170511 55 0 0.0 3.0 0.00 0.00 0.00 70 1016.5
20260507170036 55 0 0.0 3.0 0.00 0.00 0.00 69 1016.4
20260507165509 55 0 0.0 3.0 0.00 0.00 0.00 69 1016.4
20260507165009 55 0 0.0 3.0 0.00 0.00 0.00 69 1016.3
20260507164533 55 0 0.0 4.0 0.00 0.00 0.00 69 1016.4
20260507164010 55 9 0.0 4.0 0.00 0.00 0.00 68 1016.6
20260507163512 55 9 0.0 4.0 0.00 0.00 0.00 68 1016.4
20260507163029 55 0 0.0 3.0 0.00 0.00 0.00 69 1016.4
20260507162518 55 0 0.0 2.0 0.00 0.00 0.00 69 1016.4
20260507162009 55 0 0.0 3.0 0.00 0.00 0.00 69 1016.5
20260507161539 55 0 0.0 3.0 0.00 0.00 0.00 69 1016.6
20260507161009 55 5 0.0 3.0 0.00 0.00 0.00 69 1016.5
20260507160509 55 5 0.0 3.0 0.00 0.00 0.00 69 1016.4
20260507160030 55 0 0.0 3.0 0.00 0.00 0.00 69 1016.4
20260507155515 55 5 0.0 3.0 0.00 0.00 0.00 69 1016.3
20260507155014 56 0 0.0 4.0 0.00 0.00 0.00 69 1016.3
20260507154529 56 0 0.0 4.0 0.00 0.00 0.00 69 1016.4
20260507154012 55 5 1.0 4.0 0.00 0.00 0.00 69 1016.4
20260507153508 56 5 0.0 4.0 0.00 0.00 0.00 69 1016.4
20260507153028 55 0 0.0 4.0 0.00 0.00 0.00 69 1016.4
20260507152516 55 0 0.0 2.0 0.00 0.00 0.00 69 1016.5
20260507152013 55 5 0.0 2.0 0.00 0.00 0.00 69 1016.4
20260507151529 55 0 0.0 2.0 0.00 0.00 0.00 69 1016.5
20260507151008 55 0 0.0 2.0 0.00 0.00 0.00 69 1016.4
20260507150513 55 0 0.0 2.0 0.00 0.00 0.00 69 1016.4
20260507150037 55 0 0.0 2.0 0.00 0.00 0.00 69 1016.4
20260507145510 55 0 0.0 2.0 0.00 0.00 0.00 69 1016.5
20260507145016 55 5 0.0 2.0 0.00 0.00 0.00 69 1016.4
20260507144531 55 0 0.0 3.0 0.00 0.00 0.00 69 1016.4
20260507144012 55 0 0.0 3.0 0.00 0.00 0.00 69 1016.5
20260507143513 55 0 0.0 3.0 0.00 0.00 0.00 69 1016.3
20260507143028 55 0 0.0 3.0 0.00 0.00 0.00 69 1016.5
20260507142508 55 0 0.0 3.0 0.00 0.00 0.00 69 1016.3
20260507142022 55 5 0.0 4.0 0.00 0.00 0.00 68 1016.3
20260507141545 56 0 1.0 4.0 0.00 0.00 0.00 68 1016.4
20260507141010 56 0 0.0 4.0 0.00 0.00 0.00 68 1016.4
20260507140512 56 0 0.0 5.0 0.00 0.00 0.00 68 1016.4
20260507140029 56 0 0.0 5.0 0.00 0.00 0.00 67 1016.5
20260507135511 56 352 2.0 5.0 0.00 0.00 0.00 67 1016.4
20260507135011 56 351 2.0 5.0 0.00 0.00 0.00 66 1016.5
20260507134528 56 350 0.0 6.0 0.00 0.00 0.00 66 1016.4
20260507134011 56 350 1.0 6.0 0.00 0.00 0.00 65 1016.4
20260507133510 57 350 2.0 8.0 0.00 0.00 0.00 64 1016.4
20260507133047 57 340 3.0 8.0 0.00 0.00 0.00 64 1016.3
20260507132516 57 0 1.0 7.0 0.00 0.00 0.00 64 1016.2
20260507132009 58 360 1.0 8.0 0.00 0.00 0.00 63 1016.1
20260507131529 58 5 2.0 8.0 0.00 0.00 0.00 62 1016.3
20260507131010 58 13 1.0 8.0 0.00 0.00 0.00 61 1016.2
20260507130510 59 15 2.0 8.0 0.00 0.00 0.00 61 1016.2
20260507130034 59 360 2.0 8.0 0.00 0.00 0.00 61 1016.1
20260507125511 59 352 3.0 8.0 0.00 0.00 0.00 60 1016.2
20260507125011 60 360 2.0 7.0 0.00 0.00 0.00 60 1016.1
20260507124529 60 0 0.0 5.0 0.00 0.00 0.00 60 1016.1
20260507124010 60 0 1.0 5.0 0.00 0.00 0.00 61 1016.1
20260507123513 60 0 0.0 8.0 0.00 0.00 0.00 60 1016.0
20260507123037 60 333 2.0 8.0 0.00 0.00 0.00 61 1016.0
20260507122511 59 257 3.0 7.0 0.00 0.00 0.00 61 1016.0
20260507122011 59 304 1.0 6.0 0.00 0.00 0.00 64 1016.1
20260507121528 59 139 2.0 6.0 0.00 0.00 0.00 65 1016.2
20260507121010 58 146 1.0 7.0 0.00 0.00 0.00 65 1016.2
20260507120510 58 143 1.0 9.0 0.00 0.00 0.00 64 1016.3
20260507120034 58 164 3.0 9.0 0.00 0.00 0.00 65 1016.2
20260507115509 57 144 3.0 9.0 0.00 0.00 0.00 70 1016.2
20260507115010 56 0 0.0 5.0 0.00 0.00 0.00 70 1016.2
20260507114528 56 233 2.0 5.0 0.00 0.00 0.00 69 1016.2
20260507114010 55 0 1.0 6.0 0.00 0.00 0.00 70 1016.3
20260507113509 55 172 1.0 6.0 0.00 0.00 0.00 70 1016.1
20260507113034 55 172 2.0 6.0 0.00 0.00 0.00 70 1016.2
20260507112513 55 0 0.0 3.0 0.00 0.00 0.00 72 1016.2
20260507112011 54 0 1.0 4.0 0.00 0.00 0.00 72 1016.2
20260507111530 54 304 0.0 4.0 0.00 0.00 0.00 73 1016.2
20260507111010 54 0 1.0 3.0 0.00 0.00 0.00 73 1016.2
20260507110511 54 0 0.0 5.0 0.00 0.00 0.00 74 1016.3
20260507110037 53 0 0.0 5.0 0.00 0.00 0.00 73 1016.2
20260507105509 53 0 1.0 4.0 0.00 0.00 0.00 73 1016.2
20260507105011 53 331 0.0 4.0 0.00 0.00 0.00 73 1016.3
20260507104531 53 0 0.0 4.0 0.00 0.00 0.00 74 1016.3
20260507104011 53 0 1.0 4.0 0.00 0.00 0.00 74 1016.4
20260507103511 53 0 0.0 6.0 0.00 0.00 0.00 74 1016.2
20260507103031 53 339 2.0 6.0 0.00 0.00 0.00 73 1016.3
20260507102508 53 352 1.0 5.0 0.00 0.00 0.00 75 1016.3
20260507102009 53 336 2.0 5.0 0.00 0.00 0.00 74 1016.2
20260507101534 53 0 0.0 3.0 0.00 0.00 0.00 74 1016.1
20260507101011 53 0 0.0 2.0 0.00 0.00 0.00 74 1016.1
20260507100512 52 0 0.0 5.0 0.00 0.00 0.00 76 1016.2
20260507100030 52 0 0.0 5.0 0.00 0.00 0.00 75 1016.0
20260507095509 52 54 1.0 5.0 0.00 0.00 0.00 76 1016.1
20260507095014 52 0 0.0 4.0 0.00 0.00 0.00 76 1016.1
20260507094533 52 0 0.0 4.0 0.00 0.00 0.00 77 1016.1
20260507094016 52 0 1.0 4.0 0.00 0.00 0.00 77 1016.1
20260507093510 51 342 0.0 5.0 0.00 0.00 0.00 77 1016.0
20260507093028 51 0 0.0 5.0 0.00 0.00 0.00 78 1015.9
20260507092511 51 0 0.0 5.0 0.00 0.00 0.00 79 1015.9
20260507092011 51 65 0.0 3.0 0.00 0.00 0.00 79 1015.8
20260507091532 51 0 0.0 2.0 0.00 0.00 0.00 79 1015.9
20260507091009 51 0.0 0.0 0.00 0.00 0.00 79 1015.8
20260507090511 50 0.0 0.0 0.00 0.00 0.00 80 1015.8
20260507090030 50 0.0 0.0 0.00 0.00 0.00 79 1015.8
20260507085510 50 0.0 0.0 0.00 0.00 0.00 80 1015.7
20260507085008 50 0.0 0.0 0.00 0.00 0.00 81 1015.7
20260507084528 50 0.0 0.0 0.00 0.00 0.00 81 1015.6
20260507084009 50 0.0 0.0 0.00 0.00 0.00 80 1015.7
20260507083511 50 0.0 0.0 0.00 0.00 0.00 81 1015.5
20260507083030 50 0.0 0.0 0.00 0.00 0.00 81 1015.6
20260507082510 50 0.0 0.0 0.00 0.00 0.00 81 1015.5
20260507082010 50 0.0 0.0 0.00 0.00 0.00 81 1015.5
20260507081536 49 0.0 0.0 0.00 0.00 0.00 81 1015.5
20260507081010 49 0.0 0.0 0.00 0.00 0.00 81 1015.3
20260507080508 49 0.0 0.0 0.00 0.00 0.00 81 1015.4
20260507080030 49 0.0 0.0 0.00 0.00 0.00 82 1015.4
20260507075509 49 0.0 0.0 0.00 0.00 0.00 82 1015.3
20260507075011 49 0.0 0.0 0.00 0.00 0.00 82 1015.3
20260507074530 49 0.0 0.0 0.00 0.00 0.00 82 1015.2
20260507074010 49 0.0 0.0 0.00 0.00 0.00 82 1015.2
20260507073512 49 0.0 0.0 0.00 0.00 0.00 82 1015.1
20260507073028 49 0.0 0.0 0.00 0.00 0.00 82 1015.1
20260507072527 49 0.0 0.0 0.00 0.00 0.00 83 1015.0
20260507072010 49 0.0 0.0 0.00 0.00 0.00 83 1015.0
20260507071529 49 0.0 0.0 0.00 0.00 0.00 83 1014.9
20260507071010 49 0.0 0.0 0.00 0.00 0.00 84 1015.0
20260507070509 49 0.0 0.0 0.00 0.00 0.00 85 1014.9
20260507070041 49 0.0 0.0 0.00 0.00 0.00 85 1014.8
20260507065510 49 0.0 0.0 0.00 0.00 0.00 85 1014.8
20260507065010 48 0.0 0.0 0.00 0.00 0.00 86 1014.7
20260507064529 48 0.0 0.0 0.00 0.00 0.00 86 1014.7
20260507064010 48 0.0 0.0 0.00 0.00 0.00 86 1014.7
20260507063513 48 0.0 0.0 0.00 0.00 0.00 87 1014.6
20260507063034 48 0.0 0.0 0.00 0.00 0.00 88 1014.5
20260507062511 48 0.0 0.0 0.00 0.00 0.00 88 1014.5
20260507062011 47 0.0 0.0 0.00 0.00 0.00 88 1014.5
20260507061528 0 0.0 0.0 0.00 0.00 0.00 1014.6
20260507061015 0 0.0 0.0 0.00 0.00 0.00 1014.5
20260507060510 0 0.0 0.0 0.00 0.00 0.00 1014.4
20260507060030 0 0.0 0.0 0.00 0.00 0.00 1014.3
20260507055511 0 0.0 0.0 0.00 0.00 0.00 1014.2
20260507055009 0 0.0 0.0 0.00 0.00 0.00 1014.3
20260507054529 0 0.0 0.0 0.00 0.00 0.00 1014.3
20260507054010 0 0.0 0.0 0.00 0.00 0.00 1014.3
20260507053508 0 0.0 0.0 0.00 0.00 0.00 1014.3
20260507053030 0 0.0 0.0 0.00 0.00 0.00 1014.2
20260507052510 0 0.0 0.0 0.00 0.00 0.00 1014.1
20260507052008 0 0.0 0.0 0.00 0.00 0.00 1014.2
20260507051529 0 0.0 0.0 0.00 0.00 0.00 1014.2
20260507051010 0 0.0 0.0 0.00 0.00 0.00 1014.0
20260507050509 0 0.0 0.0 0.00 0.00 0.00 1014.0
20260507050032 0 0.0 0.0 0.00 0.00 0.00 1014.0
20260507045511 0 0.0 0.0 0.00 0.00 0.00 1013.9
20260507045011 0 0.0 0.0 0.00 0.00 0.00 1013.8
20260507044529 0 0.0 0.0 0.00 0.00 0.00 1013.7
20260507044012 0 0.0 0.0 0.00 0.00 0.00 1013.6
20260507043509 0 0.0 0.0 0.00 0.00 0.00 1013.6
20260507043028 0 0.0 0.0 0.00 0.00 0.00 1013.6
20260507042511 0 0.0 0.0 0.00 0.00 0.00 1013.5
20260507042014 0 0.0 0.0 0.00 0.00 0.00 1013.5
20260507041527 0 0.0 0.0 0.00 0.00 0.00 1013.4
20260507041013 0 0.0 0.0 0.00 0.00 0.00 1013.5
20260507040511 0 0.0 0.0 0.00 0.00 0.00 1013.5
20260507040028 0 0.0 0.0 0.00 0.00 0.00 1013.4
20260507035515 0 0.0 0.0 0.00 0.00 0.00 1013.3
20260507035009 0 0.0 0.0 0.00 0.00 0.00 1013.4
20260507034539 0 0.0 0.0 0.00 0.00 0.00 1013.4
20260507034010 0 0.0 0.0 0.00 0.00 0.00 1013.3
20260507033507 0 0.0 0.0 0.00 0.00 0.00 1013.3
20260507033042 0 0.0 0.0 0.00 0.00 0.00 1013.3
20260507032513 0 0.0 0.0 0.00 0.00 0.00 1013.3
20260507032009 0 0.0 0.0 0.00 0.00 0.00 1013.3
20260507031545 0 0.0 0.0 0.00 0.00 0.00 1013.2
20260507031016 0 0.0 0.0 0.00 0.00 0.00 1013.1
20260507030509 0 0.0 0.0 0.00 0.00 0.00 1013.2
20260507030030 0 0.0 0.0 0.00 0.00 0.00 1013.2
20260507025509 0 0.0 0.0 0.00 0.00 0.00 1013.2
20260507025013 0 0.0 0.0 0.00 0.00 0.00 1013.1
20260507024529 0 0.0 0.0 0.00 0.00 0.00 1013.3
20260507024009 0 0.0 0.0 0.00 0.00 0.00 1013.2
20260507023510 0 0.0 0.0 0.00 0.00 0.00 1013.1
20260507023029 0 0.0 0.0 0.00 0.00 0.00 1013.2
20260507022510 46 0.0 0.0 0.00 0.00 0.00 87 1013.1
20260507022008 46 0.0 0.0 0.00 0.00 0.00 86 1013.2
20260507021530 46 0.0 0.0 0.00 0.00 0.00 86 1013.2
20260507021010 46 0.0 0.0 0.00 0.00 0.00 86 1013.1
20260507020510 46 0.0 0.0 0.00 0.00 0.00 86 1012.9
20260507020029 46 0.0 0.0 0.00 0.00 0.00 86 1012.9
20260507015511 46 0.0 0.0 0.00 0.00 0.00 86 1012.8
20260507015010 46 0.0 0.0 0.00 0.00 0.00 86 1012.9
20260507014540 46 0.0 0.0 0.00 0.00 0.00 86 1012.9
20260507014010 46 0.0 0.0 0.00 0.00 0.00 86 1012.9
20260507013509 46 0.0 0.0 0.00 0.00 0.00 85 1012.8
20260507013036 46 0.0 0.0 0.00 0.00 0.00 85 1012.8
20260507012510 46 0.0 0.0 0.00 0.00 0.00 85 1012.8
20260507012012 46 0.0 0.0 0.00 0.00 0.00 85 1012.7
20260507011533 46 0.0 0.0 0.00 0.00 0.00 85 1012.7
20260507011010 46 0.0 0.0 0.00 0.00 0.00 85 1012.8
20260507010541 46 0.0 0.0 0.00 0.00 0.00 85 1012.6
20260507010035 46 0.0 0.0 0.00 0.00 0.00 85 1012.6
20260507005508 46 0.0 0.0 0.00 0.00 0.00 85 1012.6
20260507005014 46 0.0 0.0 0.00 0.00 0.00 85 1012.6
20260507004527 46 0.0 0.0 0.00 0.00 0.00 85 1012.4
20260507004010 46 0.0 0.0 0.00 0.00 0.00 84 1012.5
20260507003513 46 0.0 0.0 0.00 0.00 0.00 84 1012.5
20260507003030 46 0.0 0.0 0.00 0.00 0.00 84 1012.4
20260507002510 46 0.0 0.0 0.00 0.00 0.00 84 1012.4
20260507002011 46 0.0 0.0 0.00 0.00 0.00 84 1012.4
20260507001534 46 0.0 0.0 0.00 0.00 0.00 84 1012.5
20260507001010 47 0.0 0.0 0.00 0.00 0.00 84 1012.3
20260507000510 47 0.0 0.0 0.00 0.00 0.00 84 1012.3
20260507000028 47 0.0 0.0 0.00 0.00 0.00 84 1012.3
20260506235511 47 0.0 0.0 0.00 0.00 0.00 84 1012.4
20260506235009 47 0.0 0.0 0.00 0.00 0.00 84 1012.3
20260506234528 47 0.0 0.0 0.00 0.00 0.00 84 1012.3
20260506234011 47 0.0 0.0 0.00 0.00 0.00 84 1012.4
20260506233510 47 0.0 0.0 0.00 0.00 0.00 84 1012.3
20260506233030 47 0.0 0.0 0.00 0.00 0.00 84 1012.3
20260506232510 47 0.0 0.0 0.00 0.00 0.00 84 1012.3
20260506232011 47 0.0 0.0 0.00 0.00 0.00 84 1012.3
20260506231527 47 0.0 0.0 0.00 0.00 0.00 84 1012.2
20260506231010 47 0.0 0.0 0.00 0.00 0.00 84 1012.3
20260506230510 48 0.0 0.0 0.00 0.00 0.00 84 1012.2
20260506230031 48 0.0 0.0 0.00 0.00 0.00 84 1012.3
20260506225514 48 0.0 0.0 0.00 0.00 0.00 84 1012.1
20260506225016 48 0.0 0.0 0.00 0.00 0.00 84 1012.1
20260506224530 48 0.0 0.0 0.00 0.00 0.00 84 1012.2
20260506224007 48 0.0 0.0 0.00 0.00 0.00 84 1012.1
20260506223510 48 0.0 0.0 0.00 0.00 0.00 84 1012.1
20260506223027 48 0.0 0.0 0.00 0.00 0.00 84 1012.1
20260506222507 48 0.0 0.0 0.00 0.00 0.00 84 1012.0
20260506222011 48 0.0 0.0 0.00 0.00 0.00 84 1011.9
20260506221530 48 0.0 0.0 0.00 0.00 0.00 84 1011.9
20260506221011 48 0.0 0.0 0.00 0.00 0.00 84 1011.9
20260506220507 48 0.0 0.0 0.00 0.00 0.00 84 1011.9
20260506220030 48 0.0 0.0 0.00 0.00 0.00 84 1011.8
20260506215510 48 0.0 0.0 0.00 0.00 0.00 84 1011.8
20260506215010 48 0.0 0.0 0.00 0.00 0.00 84 1011.7
20260506214527 49 0.0 0.0 0.00 0.00 0.00 83 1011.7
20260506214013 49 0.0 0.0 0.00 0.00 0.00 83 1011.7
20260506213513 49 0.0 0.0 0.00 0.00 0.00 83 1011.6
20260506213032 49 0.0 0.0 0.00 0.00 0.00 83 1011.6
20260506212508 49 0.0 0.0 0.00 0.00 0.00 83 1011.4
20260506212015 49 0.0 0.0 0.00 0.00 0.00 83 1011.5
20260506211528 49 0.0 0.0 0.00 0.00 0.00 83 1011.4
20260506211007 49 0.0 0.0 0.00 0.00 0.00 82 1011.3
20260506210507 49 0.0 0.0 0.00 0.00 0.00 82 1011.4
20260506210033 49 0.0 0.0 0.00 0.00 0.00 82 1011.3
20260506205509 49 0.0 0.0 0.00 0.00 0.00 82 1011.2
20260506205007 49 0.0 0.0 0.00 0.00 0.00 82 1011.3
20260506204530 49 0.0 0.0 0.00 0.00 0.00 82 1011.3
20260506204011 49 0.0 0.0 0.00 0.00 0.00 82 1011.3
20260506203508 49 0.0 0.0 0.00 0.00 0.00 82 1011.3
20260506203036 49 0.0 0.0 0.00 0.00 0.00 82 1011.3
20260506202511 49 0.0 0.0 0.00 0.00 0.00 81 1011.2
20260506202011 49 0.0 0.0 0.00 0.00 0.00 81 1011.2
20260506201531 49 0.0 0.0 0.00 0.00 0.00 81 1011.1
20260506201010 49 0.0 0.0 0.00 0.00 0.00 81 1011.1
20260506200509 49 0.0 0.0 0.00 0.00 0.00 81 1011.0
20260506200033 49 0.0 0.0 0.00 0.00 0.00 81 1011.1
20260506195509 49 0.0 0.0 0.00 0.00 0.00 81 1011.1
20260506195010 50 0.0 0.0 0.00 0.00 0.00 81 1011.0
20260506194531 50 0.0 0.0 0.00 0.00 0.00 81 1010.9
20260506194014 50 0.0 0.0 0.00 0.00 0.00 81 1010.9
20260506193509 50 0.0 0.0 0.00 0.00 0.00 81 1010.8
20260506193030 50 0.0 0.0 0.00 0.00 0.00 81 1010.7
20260506192508 50 0.0 0.0 0.00 0.00 0.00 80 1010.5
20260506192017 50 0.0 0.0 0.00 0.00 0.00 80 1010.3
20260506191530 50 0.0 0.0 0.00 0.00 0.00 80 1010.2
20260506191011 50 0.0 0.0 0.00 0.00 0.00 80 1010.2
20260506190511 50 0.0 0.0 0.00 0.00 0.00 80 1010.1
20260506190027 50 0.0 0.0 0.00 0.00 0.00 80 1010.0
20260506185512 50 0.0 0.0 0.00 0.00 0.00 80 1010.0
20260506185012 50 0.0 0.0 0.00 0.00 0.00 80 1010.0
20260506184535 51 0.0 0.0 0.00 0.00 0.00 79 1009.8
20260506184013 51 0.0 0.0 0.00 0.00 0.00 79 1009.9
20260506183508 51 0.0 0.0 0.00 0.00 0.00 79 1009.9
20260506183030 51 5.0 10.0 0.00 0.00 0.00 78 1009.8
20260506182510 51 338 5.0 13.0 0.00 0.00 0.00 79 1009.6
20260506182011 51 352 7.0 13.0 0.00 0.00 0.00 79 1009.5
20260506181530 51 352 4.0 12.0 0.00 0.00 0.00 80 1009.5
20260506181009 51 332 3.0 12.0 0.00 0.00 0.00 80 1009.3
20260506180511 52 325 3.0 10.0 0.00 0.00 0.00 81 1009.4
20260506180030 52 348 5.0 14.0 0.00 0.00 0.00 81 1009.4
20260506175513 52 360 4.0 14.0 0.00 0.00 0.00 81 1009.3
20260506175016 52 284 5.0 14.0 0.00 0.00 0.00 81 1009.4
20260506174530 52 9 3.0 9.0 0.00 0.00 0.00 81 1009.3
20260506174012 52 340 4.0 11.0 0.00 0.00 0.00 81 1009.1
20260506173509 52 5 2.0 11.0 0.00 0.00 0.00 81 1009.2
20260506173035 52 352 3.0 11.0 0.00 0.00 0.00 81 1009.2
20260506172511 52 343 1.0 9.0 0.00 0.00 0.00 80 1009.2